Change the Weather History Date:

Monday, February 13, 2012

  Actual Average Record
Temperature  
Mean Temperature 52 °F -  
Max Temperature 70 °F 74 °F 86 °F (1997)
Min Temperature 35 °F 51 °F 35 °F (2012)
Degree Days  
Heating Degree Days 12    
Growing Degree Days 2 (Base 50)    
Moisture  
Dew Point 39 °F    
Average Humidity 63    
Maximum Humidity 89    
Minimum Humidity 38    
Precipitation  
Precipitation 0.00 in - - ()
Sea Level Pressure  
Sea Level Pressure 30.22 in    
Wind  
Wind Speed 6 mph (ENE)    
Max Wind Speed 10 mph    
Max Gust Speed 16 mph    
Visibility 10 miles    
Events      
Averages and records for this station are not official NWS values.
T = Trace of Precipitation, MM = Missing Value Source: NWS Daily Summary

Daily Weather History Graph

Daily Weather History Graph

Search for Another Location

Airport or City:

Trip Planner

Search our weather history database for the weather conditions in past years. The results will help you decide how hot, cold, wet, or windy it might be!

Date:

Astronomy

Feb. 13, 2012 Rise Set
Actual Time 7:06 AM EST 6:18 PM EST
Civil Twilight 6:42 AM EST 6:42 PM EST
Nautical Twilight 6:15 AM EST 7:09 PM EST
Astronomical Twilight 5:47 AM EST 7:36 PM EST
Moon No Moon Rise 10:47 AM EST (2/13)
Length of Visible Light 11h 59m
Length of Day
11h 12m
Waning Gibbous, 62% of the Moon is Illuminated
Feb 13
Waning Gibbous
Feb 14
Last Quarter
Feb 21
New
Feb 29
First Quarter
Mar 8
Full

Hourly Weather History & Observations

Time (EST) Temp. Windchill Dew Point Humidity Pressure Visibility Wind Dir Wind Speed Gust Speed Precip Events Conditions
12:53 AM 36.0 °F 31.1 °F 30.9 °F 82% 30.30 in 10.0 mi NNE 5.8 mph - N/A   Clear
1:53 AM 35.1 °F 29.3 °F 32.0 °F 89% 30.28 in 10.0 mi NE 6.9 mph - N/A   Clear
2:53 AM 35.1 °F 30.1 °F 32.0 °F 89% 30.27 in 10.0 mi NE 5.8 mph - N/A   Clear
3:53 AM 35.1 °F 28.6 °F 32.0 °F 89% 30.27 in 10.0 mi NNE 8.1 mph - N/A   Clear
5:53 AM 36.0 °F 30.3 °F 30.9 °F 82% 30.27 in 10.0 mi NNE 6.9 mph - N/A   Clear
6:53 AM 36.0 °F 29.0 °F 28.9 °F 76% 30.26 in 10.0 mi NNE 9.2 mph - N/A   Clear
7:53 AM 39.0 °F 34.0 °F 28.9 °F 67% 30.28 in 10.0 mi NE 6.9 mph - N/A   Clear
9:53 AM 53.1 °F - 34.0 °F 48% 30.29 in 10.0 mi NE 8.1 mph - N/A   Clear
10:53 AM 60.1 °F - 36.0 °F 41% 30.27 in 10.0 mi ENE 10.4 mph - N/A   Clear
11:53 AM 64.0 °F - 41.0 °F 43% 30.25 in 10.0 mi East 8.1 mph - N/A   Partly Cloudy
12:53 PM 66.9 °F - 44.1 °F 44% 30.22 in 10.0 mi ESE 8.1 mph 16.1 mph N/A   Clear
1:53 PM 68.0 °F - 44.1 °F 42% 30.18 in 10.0 mi Variable 3.5 mph - N/A   Partly Cloudy
2:53 PM 70.0 °F - 43.0 °F 38% 30.16 in 10.0 mi Variable 5.8 mph - N/A   Partly Cloudy
4:53 PM 69.1 °F - 44.1 °F 40% 30.14 in 10.0 mi West 6.9 mph - N/A   Scattered Clouds
5:53 PM 66.9 °F - 44.1 °F 44% 30.14 in 10.0 mi West 3.5 mph - N/A   Clear
6:53 PM 63.0 °F - 48.0 °F 58% 30.14 in 10.0 mi Calm Calm - N/A   Clear
7:53 PM 55.9 °F - 46.9 °F 72% 30.15 in 10.0 mi East 3.5 mph - N/A   Clear
8:53 PM 55.0 °F - 46.9 °F 74% 30.17 in 10.0 mi ESE 4.6 mph - N/A   Partly Cloudy
9:53 PM 57.9 °F - 46.0 °F 65% 30.17 in 10.0 mi ESE 3.5 mph - N/A   Mostly Cloudy
10:53 PM 55.9 °F - 46.0 °F 69% 30.17 in 10.0 mi ESE 6.9 mph - N/A   Partly Cloudy
11:53 PM 55.9 °F - 46.9 °F 72% 30.16 in 10.0 mi SE 8.1 mph - N/A   Clear